Flag for Greece Weather past 2 weeks in Glyfada, Greece

Now
52 °F

Passing clouds.


Feels Like: 52 °F
Forecast: 47 / 66 °F
Wind: 2 mph from North

Location: Eleftherios Venizelos International Airport

Current Time: Apr 21, 2015 at 10:53:41 PM

Latest Report: Apr 21, 2015 at 10:20 PM


Visibility: N/A

Pressure: 30.07 "Hg

Humidity: 62%

Dew point: 39 °F

Location of GlyfadaLocation

Historic Weather in Glyfada — Graph

°F

Glyfada temperature yesterday

Maximum temperature yesterday: 61 °F (at 2:50 PM)
Minimum temperature yesterday: 46 °F (at 11:50 PM)
Average temperature yesterday: 55 °F

Past Weeks' High & Low Weather Summary

 TemperatureHumidityPressure
High73 °F (Apr 13, 4:50 PM)88% (Apr 12, 11:50 PM)30.33 "Hg (Apr 12, 11:50 PM)
Low37 °F (Apr 12, 5:50 AM)23% (Apr 12, 12:50 PM)29.68 "Hg (Apr 6, 9:20 PM)
Average56 °F57%30.09 "Hg
* Reported Apr 6 9:20 PM — Apr 21 9:20 PM, Glyfada, Weather by CustomWeather, © 2015

Note: Actual official high and low records may vary slightly from our data, if they occured in-between our weather recording intervals... More about our weather records

Advertising

Glyfada weather history for previous 24 hours

 ConditionsComfort  
Time TempWeatherWind HumidityBarometerVisibility
9:20 PM
Tue, Apr 21
54 °FPassing clouds.9 mph58%30.07 "HgN/A
8:50 PM54 °FPassing clouds.7 mph63%30.07 "HgN/A
8:20 PM54 °FPassing clouds.8 mph63%30.04 "HgN/A
7:50 PM55 °FPassing clouds.12 mph59%30.04 "HgN/A
7:20 PM55 °FPassing clouds.13 mph59%30.04 "HgN/A
6:50 PM57 °FPassing clouds.15 mph59%30.01 "HgN/A
6:20 PM57 °FPassing clouds.18 mph59%30.01 "HgN/A
5:50 PM59 °FPassing clouds.23 mph59%30.01 "HgN/A
5:20 PM59 °FPassing clouds.22 mph68%30.01 "HgN/A
4:50 PM63 °FScattered clouds.21 mph52%29.98 "HgN/A
4:20 PM66 °FScattered clouds.20 mph37%29.98 "HgN/A
3:50 PM66 °FScattered clouds.16 mph30%29.98 "HgN/A
3:20 PM63 °FBroken clouds.14 mph34%29.98 "HgN/A
2:50 PM64 °FBroken clouds.13 mph28%29.98 "HgN/A
2:20 PM66 °FPartly sunny.15 mph28%29.98 "HgN/A
1:50 PM66 °FPartly sunny.15 mph28%29.98 "HgN/A
1:20 PM66 °FPartly sunny.13 mph30%29.98 "HgN/A
12:50 PM66 °FPassing clouds.12 mph30%29.98 "HgN/A
11:50 AM66 °FPassing clouds.15 mph30%29.98 "HgN/A
11:20 AM64 °FPassing clouds.14 mph32%29.98 "HgN/A
10:50 AM64 °FPassing clouds.14 mph32%29.98 "HgN/A
10:20 AM64 °FPassing clouds.9 mph32%29.95 "HgN/A
9:50 AM63 °FPassing clouds.10 mph45%29.95 "HgN/A
9:20 AM59 °FPassing clouds.3 mph63%29.95 "HgN/A
8:50 AM55 °FPassing clouds.3 mph77%29.95 "HgN/A
8:20 AM52 °FPassing clouds.3 mph77%29.92 "HgN/A
7:50 AM48 °FPassing clouds.1 mph82%29.92 "HgN/A
7:20 AM46 °FPassing clouds.3 mph82%29.92 "HgN/A
6:50 AM46 °FPassing clouds.3 mph82%29.92 "HgN/A
6:20 AM43 °FPassing clouds.3 mph87%29.92 "HgN/A
5:50 AM43 °FPassing clouds.3 mph87%29.92 "HgN/A
5:20 AM45 °FPassing clouds.3 mph87%29.92 "HgN/A
4:50 AM48 °FPassing clouds.1 mph82%29.92 "HgN/A
4:20 AM45 °FPassing clouds.2 mph87%29.92 "HgN/A
3:50 AM46 °FPassing clouds.1 mph82%29.92 "HgN/A
3:20 AM52 °FPassing clouds.1 mph77%29.92 "HgN/A
2:50 AM54 °FPassing clouds.1 mph77%29.92 "HgN/A
2:20 AM48 °FPassing clouds.2 mph82%29.92 "HgN/A
1:50 AM48 °FPassing clouds.2 mph87%29.92 "HgN/A
1:20 AM46 °FPassing clouds.5 mph82%29.92 "HgN/A
12:50 AM46 °FPassing clouds.2 mph87%29.92 "HgN/A
12:20 AM46 °FPassing clouds.2 mph82%29.95 "HgN/A
11:50 PM
Mon, Apr 20
46 °FPassing clouds.3 mph82%29.95 "HgN/A
11:20 PM48 °FPassing clouds.5 mph76%29.95 "HgN/A
10:50 PM48 °FPassing clouds.5 mph76%29.95 "HgN/A
10:20 PM52 °FPassing clouds.3 mph67%29.95 "HgN/A
Weather by CustomWeather, © 2015

See weather overviewHow to use our weather pages